Content
SEND FEEDBACK

Daily
Averages
Monthly
Summary
Turkey

KILIS, TURKEY


Home > Middle East > Turkey
Elevation: 638 meters     Latitude: 36 06N     Longitude: 037 24E

WEATHER
 
SELECT A DAY
Number of Records: 214,901;   Date Range: 7/1/96 - 11/27/14
 
SHARE

PRINT THIS DATA

[ ← Previous Day ]
WEATHER ALMANAC - 3 FEBRUARY, 2013
[ Next Day → ]
[ °F ]   °C
Weather ElementAverageHighLow
Temperature5.8 °C9 °C (10:50 am)2 °C (1:20 am)
Dewpoint4.2 °C7 °C (12:50 pm)1 °C (1:20 am)
Humidity89.2 %100 % (1:50 am)81 % (3:50 pm)
Barometer1025.7 hPa1029.8 hPa (8:00 pm)1022 hPa (12:50 am)
Wind Speed6 km/h11.1 km/h (5:20 pm)
Weather ElementAverage
Visibility5.8 km
Wind DirectionSSE (145.8 °)

Weather ElementTotal
Precipitation---
Heating Degree Days12.8 (Base 18.3)
Averaged from 50 records on 3 February, 2013
WEATHER CONDITIONS BREAKOUT
WIND DIRECTION BREAKOUT
WEATHER BY HOUR - 3 FEBRUARY, 2013
[ °F ]   °C
Local TimeTemperatureDewpointHumidityBarometerVisibilityWind DirectionWind SpeedGust SpeedPrecipitationEventsConditions
12:50 AM3 °C2 °C93 %1022 hPa10 kmNNW (330°)7.4 km/hMostly Cloudy
1:20 AM2 °C1 °C93 %1022 hPa10 kmNorth (360°)5.6 km/hMostly Cloudy
1:50 AM2 °C2 °C100 %1022 hPa10 kmWest (270°)1.9 km/hMostly Cloudy
2:00 AM2.2 °C1.7 °C92 %1023.7 hPa9.7 kmWest (270°)1.9 km/hPartly Cloudy
2:20 AM2 °C1 °C93 %1023 hPa8 kmVariable1.9 km/hMostly Cloudy
2:50 AM3 °C2 °C93 %1022 hPa8 kmNorth (350°)5.6 km/hMostly Cloudy
3:20 AM3 °C2 °C93 %1023 hPa8 kmCalmMostly Cloudy
3:50 AM3 °C3 °C100 %1023 hPa6.9 kmCalmMostly Cloudy
4:20 AM3 °C3 °C100 %1023 hPa4 kmCalmMostly Cloudy
4:50 AM3 °C2 °C93 %1023 hPa4 kmCalmMostly Cloudy
5:20 AM3 °C2 °C93 %1023 hPa6.9 kmNNW (330°)3.7 km/hMostly Cloudy
5:50 AM4 °C3 °C93 %1024 hPa10 kmNNW (330°)7.4 km/hMostly Cloudy
6:20 AM4 °C3 °C93 %1024 hPa10 kmNNW (330°)5.6 km/hMostly Cloudy
6:50 AM4 °C3 °C93 %1024 hPa6.9 kmCalmMostly Cloudy
7:20 AM4 °C3 °C93 %1025.1 hPa6.9 kmVariable3.7 km/hMostly Cloudy
7:50 AM5 °C4 °C93 %1025.1 hPa6.9 kmEast (100°)5.6 km/hMostly Cloudy
8:20 AM6 °C5 °C93 %1025.1 hPa6.9 kmSE (130°)3.7 km/hMostly Cloudy
8:50 AM7 °C5 °C87 %1026.1 hPa6.9 kmCalmMostly Cloudy
9:20 AM8 °C6 °C87 %1026.1 hPa6.9 kmCalmMostly Cloudy
9:50 AM8 °C6 °C87 %1026.1 hPa6.9 kmVariable1.9 km/hMostly Cloudy
10:20 AM8 °C6 °C87 %1026.1 hPa6.9 kmCalmMostly Cloudy
10:50 AM9 °C6 °C82 %1026.1 hPa6.9 kmVariable1.9 km/hMostly Cloudy
11:20 AM8 °C6 °C87 %1026.1 hPa6.9 kmSSE (160°)7.4 km/hMostly Cloudy
11:50 AM8 °C6 °C87 %1026.1 hPa6.9 kmSSE (150°)9.3 km/hMostly Cloudy
12:20 PM7 °C6 °C93 %1026.1 hPa1.9 kmSE (130°)9.3 km/hMostly Cloudy
12:50 PM8 °C7 °C93 %1026.1 hPaSE (130°)9.3 km/hMostly Cloudy
1:20 PM8 °C7 °C93 %1026.1 hPaESE (110°)9.3 km/hMostly Cloudy
1:50 PM8 °C6 °C87 %1026.1 hPa4 kmESE (120°)5.6 km/hMostly Cloudy
2:00 PM7.8 °C6.7 °C88 %1027.8 hPa3.2 kmESE (120°)5.6 km/hMist
2:20 PM8 °C7 °C93 %1026.1 hPa4 kmVariable3.7 km/hMostly Cloudy
2:50 PM8 °C6 °C87 %1026.1 hPa4 kmEast (80°)9.3 km/hMostly Cloudy
3:20 PM8 °C6 °C87 %1026.1 hPa4 kmEast (80°)5.6 km/hMostly Cloudy
3:50 PM8 °C5 °C81 %1026.1 hPa4 kmNNE (30°)9.3 km/hMostly Cloudy
4:20 PM7 °C5 °C87 %1026.1 hPa4 kmNNE (30°)7.4 km/hMostly Cloudy
4:50 PM7 °C5 °C87 %1026.1 hPa4 kmNNE (20°)9.3 km/hMostly Cloudy
5:20 PM7 °C4 °C81 %1027.1 hPa4 kmNNE (30°)11.1 km/hMostly Cloudy
5:50 PM7 °C4 °C81 %1027.1 hPa4 kmNNE (30°)9.3 km/hMostly Cloudy
6:20 PM7 °C4 °C81 %1027.1 hPa4 kmNorth (10°)9.3 km/hMostly Cloudy
6:50 PM7 °C4 °C81 %1028.1 hPa4 kmNorth (10°)7.4 km/hMostly Cloudy
7:20 PM6 °C4 °C87 %1028.1 hPa4 kmNorth (360°)11.1 km/hMostly Cloudy
7:50 PM6 °C4 °C87 %1028.1 hPa4 kmNorth (10°)7.4 km/hMostly Cloudy
8:00 PM6.1 °C4.4 °C83 %1029.8 hPa3.2 kmNorth (10°)7.4 km/hMist
8:20 PM6 °C4 °C87 %1028.1 hPa4 kmNorth (360°)7.4 km/hMostly Cloudy
8:50 PM6 °C4 °C87 %1028.1 hPa4 kmNorth (360°)9.3 km/hMostly Cloudy
9:20 PM6 °C4 °C87 %1028.1 hPa4 kmNorth (360°)7.4 km/hMostly Cloudy
9:50 PM6 °C4 °C87 %1028.1 hPa4 kmNorth (350°)9.3 km/hMostly Cloudy
10:20 PM6 °C4 °C87 %1028.1 hPa4 kmNorth (360°)11.1 km/hMostly Cloudy
10:50 PM6 °C4 °C87 %1028.1 hPa4 kmNorth (360°)9.3 km/hMostly Cloudy
11:20 PM6 °C4 °C87 %1028.1 hPa4 kmNorth (360°)11.1 km/hMostly Cloudy
11:50 PM6 °C4 °C87 %1028.1 hPa4 kmNorth (360°)9.3 km/hMostly Cloudy
Hourly data recorded from LTAJ, located 0 kilometers away from Kilis, Turkey







STORIES FROM OUR PARTNERS